Location: The Saddle
(36.8333°N, 80.3417°W)
Time: 07:39:54
(UTC-05:00)

Tiangong - Visible Passes

Search period start: 06 December 2021 00:00
Search period end: 16 December 2021 00:00
Orbit: 380 x 384 km, 41.5° (Epoch: 06 December)

Date Brightness Start Highest point End Pass type
(mag) Time Alt. Az. Time Alt. Az. Time Alt. Az.
06 Dec 2.8 18:59:49 10° SW 19:01:36 27° SSW 19:01:36 27° SSW visible
07 Dec 2.7 17:59:52 10° SSW 18:02:27 23° SSE 18:04:08 15° ESE visible
07 Dec 4.5 19:35:55 10° WSW 19:36:18 13° W 19:36:18 13° W visible
08 Dec 0.9 18:35:22 10° WSW 18:38:31 76° SSE 18:38:46 70° ESE visible
09 Dec 1.9 17:35:02 10° SW 17:38:02 41° SSE 17:41:02 10° E visible
09 Dec 3.3 19:11:45 10° W 19:13:19 25° WNW 19:13:19 25° WNW visible
10 Dec 1.2 18:11:02 10° WSW 18:14:10 67° NNW 18:15:39 28° ENE visible
11 Dec 2.2 18:47:32 10° WNW 18:50:06 35° NNW 18:50:06 35° NNW visible
12 Dec 1.6 17:46:43 10° W 17:49:46 46° NNW 17:52:21 13° ENE visible
12 Dec 4.1 19:23:59 10° WNW 19:24:31 14° WNW 19:24:31 14° WNW visible
13 Dec 2.1 18:23:12 10° WNW 18:26:07 33° N 18:26:45 30° NNE visible
14 Dec 2.9 18:59:28 10° WNW 19:01:10 25° NW 19:01:10 25° NW visible
15 Dec 2.0 17:58:43 10° WNW 18:01:38 33° N 18:03:27 18° ENE visible
15 Dec 4.5 19:35:30 10° WNW 19:35:36 11° WNW 19:35:36 11° WNW visible
